Location: Boiro
(42.6475°N, 8.8834°W)
Time: 17:24:02
(UTC+01:00)

Explorer 11/Cluster Stage 4 - Pass Details

Date: 07 December 2021
Orbit: 467 x 1255 km, 28.8° (Epoch: 23 January)

Event Time Altitude Azimuth Distance (km) Brightness Sun altitude
Exits shadow 05:40:01 22° 175° (S) 2,236 8.9 -34.5°
Drops below altitude 10° 05:44:29 10° 142° (SE) 3,103 10.0 -33.7°
Sets 05:48:11 0° 128° (SE) 4,138 11.0 -33.0°
